Bar Harbor, ME

1:06 AM EDT on October 24, 2019 (GMT -0400)
Hancock County-Bar Harbor

Weather History for KBHB - September, 2019

Change the Weather History Date:

Saturday, September 21, 2019

  Actual Average Record
Temperature  
Mean Temperature 65 °F -  
Max Temperature 75 °F 67 °F 82 °F (1965)
Min Temperature 55 °F 48 °F 33 °F (1964)
Growing Degree Days 15 (Base 50)    
Moisture  
Dew Point 54 °F    
Average Humidity 70    
Maximum Humidity 97    
Minimum Humidity 40    
Precipitation  
Precipitation 0.00 in - - ()
Sea Level Pressure  
Sea Level Pressure 30.13 in    
Wind  
Wind Speed 5 mph (NNW)    
Max Wind Speed 10 mph    
Max Gust Speed 18 mph    
Visibility 10 miles    
Events      
Averages and records for this station are not official NWS values.
T = Trace of Precipitation, MM = Missing Value Source: NWS Daily Summary

Daily Weather History Graph

Daily Weather History Graph

Search for Another Location

Airport or City:

Astronomy

Sep. 21, 2019 Rise Set
Actual Time 6:19 AM EDT 6:33 PM EDT
Civil Twilight 5:50 AM EDT 7:02 PM EDT
Nautical Twilight 5:15 AM EDT 7:36 PM EDT
Astronomical Twilight 4:40 AM EDT 8:11 PM EDT
Moon 10:52 PM EDT (9/21) 1:36 PM EDT (9/21)
Length of Visible Light 13h 12m
Length of Day
12h 14m
Waning Gibbous, 55% of the Moon is Illuminated
Sep 21
Waning Gibbous
Sep 21
Last Quarter
Sep 28
New
Oct 5
First Quarter
Oct 13
Full

Hourly Weather History & Observations

Time (EDT) Temp. Dew Point Humidity Pressure Visibility Wind Dir Wind Speed Gust Speed Precip Events Conditions
12:56 AM 66.9 °F 55.9 °F 68% 30.06 in 10.0 mi NW 8.1 mph - N/A   Overcast
1:56 AM 64.9 °F 55.0 °F 70% 30.06 in 10.0 mi NW 8.1 mph - N/A   Partly Cloudy
2:56 AM 62.1 °F 55.0 °F 78% 30.07 in 10.0 mi Calm Calm - N/A   Mostly Cloudy
3:56 AM 59.0 °F 55.0 °F 87% 30.07 in 10.0 mi Calm Calm - N/A   Overcast
4:56 AM 59.0 °F 55.0 °F 87% 30.09 in 10.0 mi Calm Calm - N/A   Clear
5:56 AM 57.9 °F 55.0 °F 90% 30.10 in 10.0 mi WNW 3.5 mph - N/A   Clear
6:56 AM 60.1 °F 55.0 °F 83% 30.12 in 10.0 mi West 4.6 mph - N/A   Clear
7:56 AM 64.0 °F 57.0 °F 78% 30.14 in 10.0 mi NNW 4.6 mph - N/A   Clear
8:56 AM 66.9 °F 55.9 °F 68% 30.16 in 10.0 mi NNW 9.2 mph - N/A   Clear
9:56 AM 69.1 °F 53.1 °F 57% 30.17 in 10.0 mi North 9.2 mph - N/A   Clear
10:56 AM 71.1 °F 51.1 °F 49% 30.17 in 10.0 mi North 10.4 mph - N/A   Clear
11:56 AM 72.0 °F 50.0 °F 46% 30.16 in 10.0 mi North 10.4 mph 18.4 mph N/A   Clear
12:56 PM 73.0 °F 48.9 °F 42% 30.15 in 10.0 mi North 8.1 mph - N/A   Clear
1:56 PM 73.9 °F 48.9 °F 41% 30.15 in 10.0 mi NNE 8.1 mph - N/A   Clear
2:56 PM 75.0 °F 48.9 °F 40% 30.14 in 10.0 mi NNE 8.1 mph - N/A   Clear
3:56 PM 75.0 °F 52.0 °F 44% 30.14 in 10.0 mi NNE 5.8 mph - N/A   Clear
4:56 PM 73.9 °F 54.0 °F 50% 30.13 in 10.0 mi Variable 3.5 mph - N/A   Clear
5:56 PM 69.1 °F 55.9 °F 63% 30.14 in 10.0 mi Calm Calm - N/A   Clear
6:56 PM 66.0 °F 55.0 °F 68% 30.15 in 10.0 mi SW 5.8 mph - N/A   Clear
7:56 PM 62.1 °F 55.9 °F 80% 30.16 in 10.0 mi Calm Calm - N/A   Clear
8:56 PM 57.9 °F 55.9 °F 93% 30.17 in 10.0 mi Calm Calm - N/A   Clear
9:56 PM 57.0 °F 55.0 °F 93% 30.17 in 10.0 mi Calm Calm - N/A   Clear
10:56 PM 55.9 °F 55.0 °F 97% 30.17 in 10.0 mi Calm Calm - N/A   Clear
11:56 PM 55.9 °F 55.0 °F 97% 30.17 in 9.0 mi Calm Calm - N/A   Clear